• In Romania
  • List of Countries
  • For 7 days
  • Water Temperature
  • Satellite Maps
  • Weather Map
  • Weather Widgets
  • user-avatar
    Login

    Hourly Weather Solden

    Today, 26 June, Monday

    Time Temperature Precipitation Wind Pressure Humidity
    00:00 +5°C° 0 mm 1 mps 583 mmHg 87%
    01:00 +5°C° 0 mm 1 mps 583 mmHg 87%
    02:00 +4°C° 0 mm 1 mps 582 mmHg 86%
    03:00 +4°C° 0 mm 1 mps 582 mmHg 86%
    04:00 +3°C° 0 mm 1 mps 582 mmHg 85%
    05:00 +6°C° 0 mm 1 mps 583 mmHg 78%
    06:00 +8°C° 0 mm 1 mps 584 mmHg 71%
    07:00 +10°C° 0 mm 0 mps 585 mmHg 64%
    08:00 +13°C° 0 mm 1 mps 586 mmHg 55%
    09:00 +15°C° 0 mm 1 mps 587 mmHg 47%
    10:00 +18°C° 0 mm 1 mps 588 mmHg 39%
    11:00 +19°C° 0 mm 1 mps 588 mmHg 39%
    12:00 +20°C° 0 mm 1 mps 589 mmHg 38%
    13:00 +19°C° 0 mm 2 mps 589 mmHg 38%
    14:00 +19°C° 0.1 mm 2 mps 588 mmHg 42%
    15:00 +18°C° 0.1 mm 2 mps 587 mmHg 47%
    16:00 +17°C° 0.1 mm 2 mps 587 mmHg 51%
    17:00 +16°C° 0.2 mm 2 mps 586 mmHg 62%
    18:00 +14°C° 0.2 mm 1 mps 585 mmHg 73%
    19:00 +13°C° 0.2 mm 1 mps 585 mmHg 83%
    20:00 +12°C° 0.2 mm 1 mps 584 mmHg 87%
    21:00 +10°C° 0.2 mm 1 mps 584 mmHg 91%
    22:00 +9°C° 0.2 mm 1 mps 583 mmHg 95%
    23:00 +8°C° 0.2 mm 1 mps 583 mmHg 96%

    Tomorrow, 27 June, Tuesday

    Time Temperature Precipitation Wind Pressure Humidity
    00:00 +8°C° 0.2 mm 1 mps 583 mmHg 96%
    01:00 +7°C° 0.2 mm 1 mps 583 mmHg 97%
    02:00 +7°C° 0.5 mm 1 mps 582 mmHg 97%
    03:00 +7°C° 0.5 mm 1 mps 582 mmHg 97%
    04:00 +8°C° 0.5 mm 1 mps 582 mmHg 96%
    05:00 +8°C° 0.5 mm 1 mps 582 mmHg 94%
    06:00 +9°C° 0.5 mm 1 mps 583 mmHg 92%
    07:00 +10°C° 0.5 mm 1 mps 583 mmHg 90%
    08:00 +12°C° 0.1 mm 1 mps 584 mmHg 82%
    09:00 +13°C° 0.1 mm 1 mps 584 mmHg 75%
    10:00 +15°C° 0.1 mm 1 mps 585 mmHg 67%
    11:00 +15°C° 0.4 mm 2 mps 585 mmHg 66%
    12:00 +16°C° 0.4 mm 2 mps 585 mmHg 65%
    13:00 +16°C° 0.4 mm 2 mps 585 mmHg 64%
    14:00 +16°C° 0.4 mm 2 mps 584 mmHg 65%
    15:00 +16°C° 0.4 mm 2 mps 584 mmHg 66%
    16:00 +16°C° 0.4 mm 2 mps 584 mmHg 67%
    17:00 +15°C° 0.2 mm 2 mps 583 mmHg 73%
    18:00 +14°C° 0.2 mm 1 mps 583 mmHg 78%
    19:00 +13°C° 0.2 mm 1 mps 582 mmHg 83%
    20:00 +11°C° 0.1 mm 1 mps 582 mmHg 88%
    21:00 +9°C° 0.1 mm 1 mps 581 mmHg 92%
    22:00 +7°C° 0.1 mm 1 mps 580 mmHg 97%
    23:00 +7°C° 0.1 mm 1 mps 580 mmHg 97%

    Day after tomorrow, 28 June, Wednesday

    Time Temperature Precipitation Wind Pressure Humidity
    00:00 +8°C° 0.1 mm 1 mps 580 mmHg 97%
    01:00 +8°C° 0.1 mm 1 mps 579 mmHg 97%
    02:00 +8°C° 0.1 mm 1 mps 579 mmHg 96%
    03:00 +8°C° 0.1 mm 1 mps 579 mmHg 96%
    04:00 +8°C° 0.1 mm 1 mps 579 mmHg 96%
    05:00 +9°C° 0.1 mm 1 mps 579 mmHg 93%
    06:00 +10°C° 0.1 mm 1 mps 579 mmHg 90%
    07:00 +11°C° 0.1 mm 1 mps 580 mmHg 87%
    08:00 +12°C° 0.4 mm 2 mps 580 mmHg 80%
    09:00 +13°C° 0.4 mm 2 mps 581 mmHg 74%
    10:00 +13°C° 0.4 mm 3 mps 581 mmHg 67%
    11:00 +14°C° 0.4 mm 3 mps 581 mmHg 64%
    12:00 +14°C° 0.4 mm 3 mps 581 mmHg 61%
    13:00 +16°C° 0.4 mm 3 mps 581 mmHg 59%
    14:00 +14°C° 1.6 mm 3 mps 580 mmHg 65%
    15:00 +14°C° 1.6 mm 2 mps 579 mmHg 71%
    16:00 +13°C° 1.6 mm 2 mps 578 mmHg 77%
    17:00 +12°C° 3 mm 2 mps 577 mmHg 82%
    18:00 +10°C° 3 mm 2 mps 577 mmHg 87%
    19:00 +9°C° 3 mm 2 mps 576 mmHg 93%
    20:00 +8°C° 0.8 mm 2 mps 575 mmHg 93%
    21:00 +8°C° 0.8 mm 1 mps 575 mmHg 94%
    22:00 +7°C° 0.8 mm 1 mps 574 mmHg 94%
    23:00 +6°C° 0.2 mm 1 mps 573 mmHg 95%

    29 June, Thursday

    Time Temperature Precipitation Wind Pressure Humidity
    00:00 +6°C° 0.2 mm 1 mps 573 mmHg 96%
    01:00 +5°C° 0.2 mm 1 mps 572 mmHg 96%
    02:00 +5°C° 0.2 mm 1 mps 572 mmHg 96%
    03:00 +4°C° 0.2 mm 1 mps 572 mmHg 97%
    04:00 +4°C° 0.2 mm 1 mps 572 mmHg 97%
    05:00 +5°C° 0.9 mm 1 mps 573 mmHg 96%
    06:00 +6°C° 0.9 mm 1 mps 573 mmHg 95%
    07:00 +7°C° 0.9 mm 1 mps 574 mmHg 94%
    08:00 +7°C° 1.4 mm 1 mps 574 mmHg 92%
    09:00 +8°C° 1.4 mm 1 mps 574 mmHg 90%
    10:00 +8°C° 1.4 mm 1 mps 575 mmHg 88%
    11:00 +8°C° 2 mm 1 mps 575 mmHg 88%
    12:00 +7°C° 2 mm 2 mps 575 mmHg 89%
    13:00 +8°C° 2 mm 2 mps 575 mmHg 89%
    14:00 +7°C° 2.7 mm 2 mps 575 mmHg 89%
    15:00 +7°C° 2.7 mm 2 mps 575 mmHg 89%
    16:00 +7°C° 2.7 mm 2 mps 576 mmHg 88%
    17:00 +6°C° 1.7 mm 2 mps 576 mmHg 89%
    18:00 +7°C° 1.7 mm 1 mps 576 mmHg 90%
    19:00 +6°C° 1.7 mm 1 mps 576 mmHg 91%
    20:00 +5°C° 1.1 mm 1 mps 576 mmHg 93%
    21:00 +4°C° 1.1 mm 1 mps 576 mmHg 94%
    22:00 +3°C° 1.1 mm 1 mps 576 mmHg 95%
    23:00 +3°C° 0.8 mm 1 mps 576 mmHg 95%

    30 June, Friday

    Time Temperature Precipitation Wind Pressure Humidity
    00:00 +3°C° 0.8 mm 1 mps 576 mmHg 95%
    01:00 +3°C° 0.8 mm 1 mps 576 mmHg 95%
    02:00 +2°C° 0 mm 1 mps 576 mmHg 95%
    03:00 0°C° 0 mm 1 mps 576 mmHg 94%
    04:00 -1°C° 0 mm 1 mps 575 mmHg 94%
    05:00 +1°C° 0 mm 1 mps 576 mmHg 91%
    06:00 +3°C° 0 mm 1 mps 578 mmHg 89%
    07:00 +5°C° 0 mm 1 mps 579 mmHg 86%
    08:00 +6°C° 0.1 mm 1 mps 580 mmHg 78%
    09:00 +8°C° 0.1 mm 1 mps 581 mmHg 69%
    10:00 +8°C° 0.1 mm 2 mps 582 mmHg 61%
    11:00 +9°C° 0.3 mm 2 mps 582 mmHg 60%
    12:00 +9°C° 0.3 mm 2 mps 582 mmHg 60%
    13:00 +10°C° 0.3 mm 3 mps 582 mmHg 59%
    14:00 +10°C° 0.4 mm 3 mps 582 mmHg 59%
    15:00 +9°C° 0.4 mm 3 mps 582 mmHg 59%
    16:00 +9°C° 0.4 mm 3 mps 582 mmHg 59%
    17:00 +8°C° 0.2 mm 2 mps 582 mmHg 65%
    18:00 +7°C° 0.2 mm 2 mps 582 mmHg 71%
    19:00 +7°C° 0.2 mm 1 mps 581 mmHg 77%
    20:00 +5°C° 0.1 mm 1 mps 580 mmHg 82%
    21:00 +3°C° 0.1 mm 1 mps 580 mmHg 86%
    22:00 +1°C° 0.1 mm 1 mps 579 mmHg 91%
    23:00 +1°C° 0 mm 1 mps 579 mmHg 89%

    1 July, Saturday

    Time Temperature Precipitation Wind Pressure Humidity
    00:00 +1°C° 0 mm 1 mps 579 mmHg 87%
    01:00 0°C° 0 mm 1 mps 578 mmHg 86%
    02:00 0°C° 0.1 mm 1 mps 578 mmHg 86%
    03:00 0°C° 0.1 mm 1 mps 578 mmHg 85%
    04:00 -1°C° 0.1 mm 1 mps 578 mmHg 85%
    05:00 +2°C° 0.1 mm 1 mps 579 mmHg 79%
    06:00 +4°C° 0.1 mm 1 mps 580 mmHg 73%
    07:00 +6°C° 0.1 mm 1 mps 581 mmHg 66%
    08:00 +8°C° 0.1 mm 1 mps 582 mmHg 61%
    09:00 +10°C° 0.1 mm 1 mps 583 mmHg 55%
    10:00 +12°C° 0.1 mm 1 mps 584 mmHg 49%
    11:00 +12°C° 0.4 mm 1 mps 584 mmHg 52%
    12:00 +12°C° 0.4 mm 1 mps 584 mmHg 54%
    13:00 +12°C° 0.4 mm 2 mps 584 mmHg 56%
    14:00 +10°C° 0.8 mm 2 mps 583 mmHg 61%
    15:00 +10°C° 0.8 mm 2 mps 583 mmHg 66%
    16:00 +9°C° 0.8 mm 2 mps 583 mmHg 71%
    17:00 +9°C° 0.6 mm 1 mps 583 mmHg 77%
    18:00 +8°C° 0.6 mm 1 mps 583 mmHg 82%
    19:00 +7°C° 0.6 mm 1 mps 583 mmHg 88%
    20:00 +6°C° 0.2 mm 1 mps 582 mmHg 89%
    21:00 +5°C° 0.2 mm 1 mps 582 mmHg 91%
    22:00 +3°C° 0.2 mm 2 mps 582 mmHg 92%
    23:00 +3°C° 0.2 mm 2 mps 582 mmHg 92%
    Show more